Terminal Aerodrome Forecast
Issued by NWS

Home | Current Version | Previous Version | Text Only | Print | Product List | Glossary On
Versions: 1 2 3 4 5 6 7 8 9 10 11 12 13 14 15 16 17 18 19 20 21 22 23 24 25
000
FTUS45 KGJT 050528
TAFVEL
TAF
KVEL 050528Z 0506/0606 16009KT P6SM BKN120
     FM050900 28008KT P6SM OVC100
     FM051400 20006KT P6SM VCSH SCT060 OVC090
     FM051800 23008KT P6SM VCTS SCT050CB OVC070
     FM060000 24010KT P6SM VCSH BKN080=

USA.gov is the U.S. government's official web portal to all federal, state and local government web resources and services.